Granada, Spain

5:44 PM CEST en Mayo 20, 2018 (GMT +0200)
Granada

Tiempo Historia de LEGR - Febrero, 2018

Change the Weather History Date:

Miércoles, Febrero 14, 2018

  Actual Average Record
Temperature  
Temperatura media 44 ° F -  
Temperatura máxima 62 ° F 61 ° F 77 ° F (2000)
Temperatura mínima 26 ° F 35 ° F 21 ° F (2012)
Degree Days  
Grados día de calefacción 21    
Moisture  
Punto de rocío 33 ° F    
Average Humidity 72    
Maximum Humidity 100    
Minimum Humidity 26    
Precipitación  
Precipitación 0.00 pul - - ()
Presión al nivel del mar  
Presión al nivel del mar 30.23 pul    
Viento  
Velocidad del viento 2 mph ()    
Velocidad máxima del viento 12 mph    
Max Gust Speed -    
Visibilidad 12.4 Millas    
Eventos      
Averages and records for this station are not official NWS values.
T = Trace of Precipitation, MM = Missing Value Source: Averaged Metar Reports

Daily Weather History Graph

Daily Weather History Graph

Search for Another Location

Airport or City:

Astronomía

Feb. 14, 2018 Salida Puesta
Hora real 8:05 AM CET 6:53 PM CET
Crepúsculo civil 7:38 AM CET 7:20 PM CET
Crepúsculo náutico 7:08 AM CET 7:51 PM CET
Crepúsculo astronómico 6:37 AM CET 8:21 PM CET
Luna 7:13 AM CET (2/14) 5:43 PM CET (2/14)
Horas de luz 11h 41m
Horas de luz
10h 48m
Creciente menguante, 2% of the Moon is Illuminated
Feb 14
Creciente menguante
Feb 15
Nueva
Feb 23
Cuarto creciente
Mar 2
Luna llena
Mar 9
Cuarto menguante

Hourly Weather History & Observations

Hora (CET) Temp. Vientos helados Punto de rocío Humedad Presión Visibilidad Wind Dir Velocidad del viento Velocidad de ráfagas Precip Eventos Condiciones
12:00 AM 33.8 ° F - 30.2 ° F 87% 30.21 pul 6.2 mi Sur 2.3 mph - N/A   Desconocido
12:30 AM 33.8 ° F - 30.2 ° F 87% 30.21 pul 6.2 mi Variable 1.2 mph - N/A   Desconocido
1:00 AM 33 ° F - 30 ° F 85% 30.32 pul 18 mi Sur 1.2 mph - -  
1:00 AM 32.0 ° F - 30.2 ° F 93% 30.21 pul 6.2 mi Variable 1.2 mph - N/A   Desconocido
1:30 AM 32.0 ° F - 28.4 ° F 87% 30.21 pul 6.2 mi Sin viento Sin viento - N/A   Desconocido
2:00 AM 31 ° F - 29 ° F 88% 30.33 pul 19 mi Oeste 1.2 mph - -  
2:00 AM 30.2 ° F - 28.4 ° F 93% 30.21 pul 6.2 mi Oeste 1.2 mph - N/A   Desconocido
2:30 AM 30.2 ° F - 28.4 ° F 93% 30.21 pul 6.2 mi OSO 1.2 mph - N/A   Desconocido
3:00 AM 31 ° F - 29 ° F 88% 30.32 pul 14 mi Oeste 3.5 mph - -  
3:00 AM 30.2 ° F 26.7 ° F 28.4 ° F 93% 30.21 pul 6.2 mi Oeste 3.5 mph - N/A   Desconocido
3:30 AM 32.0 ° F - 28.4 ° F 87% 30.21 pul 6.2 mi Variable 1.2 mph - N/A   Desconocido
4:00 AM 31 ° F - 28 ° F 86% 30.31 pul 16 mi Sin viento Sin viento - -  
4:00 AM 30.2 ° F - 28.4 ° F 93% 30.21 pul 6.2 mi Sin viento Sin viento - N/A   Desconocido
4:30 AM 30.2 ° F - 26.6 ° F 86% 30.18 pul 6.2 mi Sin viento Sin viento - N/A   Desconocido
5:00 AM 30 ° F - 28 ° F 88% 30.30 pul 15 mi Sin viento Sin viento - -  
5:00 AM 28.4 ° F - 26.6 ° F 93% 30.18 pul 6.2 mi Sin viento Sin viento - N/A   Desconocido
5:30 AM 28.4 ° F - 26.6 ° F 93% 30.18 pul 6.2 mi Sin viento Sin viento - N/A   Desconocido
6:00 AM 29 ° F - 27 ° F 91% 30.32 pul 8 mi OSO 1.2 mph - -  
6:00 AM 28.4 ° F - 26.6 ° F 93% 30.21 pul - Sin viento Sin viento - N/A   Despejado
6:30 AM 28.4 ° F - 26.6 ° F 93% 30.21 pul - Sin viento Sin viento - N/A   Despejado
7:00 AM 28 ° F - 26 ° F 87% 30.33 pul 12 mi SO 1.2 mph - -   Nubes dispersas
7:00 AM 30.2 ° F - 28.4 ° F 93% 30.21 pul - SSO 1.2 mph - N/A   Despejado
7:30 AM 28.4 ° F - 26.6 ° F 93% 30.21 pul - Sin viento Sin viento - N/A   Despejado
8:00 AM 29 ° F - 27 ° F 91% 30.33 pul 7 mi Sin viento Sin viento - -   Nubes dispersas
8:00 AM 28.4 ° F - 26.6 ° F 93% 30.21 pul - Sin viento Sin viento - N/A   Despejado
8:30 AM 26.6 ° F - 26.6 ° F 100% 30.21 pul - Sin viento Sin viento - N/A   Despejado
9:00 AM 30 ° F - 29 ° F 92% 30.35 pul 7 mi SO 2.3 mph - -  
9:00 AM 28.4 ° F - 26.6 ° F 93% 30.24 pul - SO 1.2 mph - N/A   Despejado
9:30 AM 32.0 ° F - 30.2 ° F 93% 30.24 pul - Variable 2.3 mph - N/A   Despejado
10:00 AM 36 ° F - 32 ° F 81% 30.34 pul 1 mi Sin viento Sin viento - -   Nubes dispersas
10:00 AM 33.8 ° F - 32.0 ° F 93% 30.24 pul - Sin viento Sin viento - N/A   Despejado
10:30 AM 37.4 ° F - 33.8 ° F 87% 30.24 pul - Sin viento Sin viento - N/A   Despejado
11:00 AM 40 ° F - 35 ° F 75% 30.32 pul 15 mi NNO 2.3 mph - -  
11:00 AM 37.4 ° F - 32.0 ° F 81% 30.24 pul - Variable 1.2 mph - N/A   Despejado
11:30 AM 41.0 ° F - 33.8 ° F 76% 30.24 pul - Variable 2.3 mph - N/A   Despejado
12:00 PM 46 ° F - 36 ° F 60% 30.30 pul 17 mi NO 2.3 mph - -  
12:00 PM 42.8 ° F - 33.8 ° F 70% 30.24 pul - Variable 1.2 mph - N/A   Despejado
12:30 PM 46.4 ° F - 33.8 ° F 62% 30.24 pul - Variable 2.3 mph - N/A   Despejado
1:00 PM 53 ° F - 37 ° F 43% 30.23 pul 19 mi Oeste 2.3 mph - -   Despejado
1:00 PM 50.0 ° F - 33.8 ° F 54% 30.21 pul - Variable 2.3 mph - N/A   Despejado
1:30 PM 51.8 ° F - 35.6 ° F 54% 30.21 pul - NO 3.5 mph - N/A   Despejado
2:00 PM 57 ° F - 38 ° F 38% 30.19 pul 19 mi ONO 4.6 mph - -   Despejado
2:00 PM 53.6 ° F - 37.4 ° F 54% 30.18 pul - ONO 3.5 mph - N/A   Despejado
2:30 PM 57.2 ° F - 35.6 ° F 44% 30.18 pul - Variable 1.2 mph - N/A   Despejado
3:00 PM 60 ° F - 39 ° F 34% 30.15 pul 19 mi OSO 4.6 mph - -  
3:00 PM 57.2 ° F - 35.6 ° F 44% 30.18 pul - Variable 4.6 mph - N/A   Despejado
3:30 PM 59.0 ° F - 35.6 ° F 42% 30.15 pul - Variable 1.2 mph - N/A   Despejado
4:00 PM 62 ° F - 38 ° F 29% 30.14 pul 19 mi OSO 5.8 mph - -   Despejado
4:00 PM 59.0 ° F - 35.6 ° F 42% 30.15 pul - SO 4.6 mph - N/A   Despejado
4:30 PM 60.8 ° F - 35.6 ° F 39% 30.15 pul - Oeste 6.9 mph - N/A   Despejado
5:00 PM 62 ° F - 36 ° F 26% 30.14 pul 19 mi Oeste 11.5 mph - -  
5:00 PM 59.0 ° F - 32.0 ° F 36% 30.15 pul - Oeste 10.4 mph - N/A   Despejado
5:30 PM 59.0 ° F - 37.4 ° F 45% 30.18 pul - Norte 10.4 mph - N/A   Despejado
6:00 PM 59 ° F - 39 ° F 36% 30.17 pul 19 mi NNO 10.4 mph - -  
6:00 PM 55.4 ° F - 37.4 ° F 51% 30.18 pul - NNO 9.2 mph - N/A   Despejado
6:30 PM 55.4 ° F - 37.4 ° F 51% 30.18 pul - ONO 6.9 mph - N/A   Despejado
7:00 PM 54 ° F - 39 ° F 46% 30.21 pul 19 mi Oeste 9.2 mph - -   Nubes dispersas
7:00 PM 50.0 ° F - 37.4 ° F 62% 30.21 pul - Oeste 8.1 mph - N/A   Despejado
7:30 PM 50.0 ° F - 37.4 ° F 62% 30.21 pul - OSO 6.9 mph - N/A   Despejado
8:00 PM 50 ° F - 38 ° F 54% 30.25 pul 19 mi OSO 6.9 mph - -  
8:00 PM 48.2 ° F - 37.4 ° F 66% 30.21 pul - OSO 6.9 mph - N/A   Despejado
8:30 PM 46.4 ° F 42.9 ° F 37.4 ° F 71% 30.24 pul - SO 6.9 mph - N/A   Despejado
9:00 PM 48 ° F - 38 ° F 60% 30.26 pul 19 mi SO 5.8 mph - -  
9:00 PM 46.4 ° F 44.3 ° F 37.4 ° F 71% 30.24 pul - SO 4.6 mph - N/A   Despejado
9:30 PM 44.6 ° F 41.4 ° F 37.4 ° F 76% 30.24 pul - OSO 5.8 mph - N/A   Despejado
10:00 PM 44 ° F - 38 ° F 74% 30.29 pul 19 mi ONO 2.3 mph - -   Despejado
10:00 PM 42.8 ° F - 37.4 ° F 81% 30.24 pul - Sin viento Sin viento - N/A   Despejado
10:30 PM 41.0 ° F - 35.6 ° F 81% 30.24 pul - OSO 2.3 mph - N/A   Despejado
11:00 PM 43 ° F - 37 ° F 73% 30.30 pul 19 mi Oeste 3.5 mph - -  
11:00 PM 41.0 ° F 39.0 ° F 35.6 ° F 81% 30.24 pul - OSO 3.5 mph - N/A   Despejado
11:30 PM 41.0 ° F - 35.6 ° F 81% 30.24 pul - Variable 1.2 mph - N/A   Despejado